Home   Weather   Vejle   Past weeks

Flag for Denmark Past Weather in Vejle, Denmark — Yesterday and Last 2 Weeks

Now
46 °F

Low clouds.


Feels Like: 42 °F
Forecast: 35 / 43 °F
Wind: 8 mph from Southwest

Location: Billund Lufthavn

Current Time: Dec 11, 2016 at 3:22:20 am

Latest Report: Dec 11, 2016 at 2:50 am


Visibility: 5 mi

Pressure: 29.83 "Hg

Humidity: 93%

Dew Point: 45 °F

Location of VejleLocation

Past Weather in Vejle — Graph

°F

Vejle Temperature Yesterday

Maximum temperature yesterday: 50 °F (at 12:20 am)
Minimum temperature yesterday: 45 °F (at 10:50 pm)
Average temperature yesterday: 49 °F

High & Low Weather Summary for the Past Weeks

 TemperatureHumidityPressure
High52 °F (Dec 8, 1:50 am)100% (Nov 26, 6:50 am)30.54 "Hg (Nov 26, 6:50 am)
Low19 °F (Dec 3, 5:50 am)53% (Nov 27, 2:50 pm)29.80 "Hg (Dec 1, 4:20 pm)
Average41 °F90%30.16 "Hg
* Reported Nov 26 2:20 am — Dec 11 2:20 am, Vejle, Weather by CustomWeather, © 2016

Note: Actual official high and low records may vary slightly from our data, if they occured in-between our weather recording intervals... More about our weather records

Advertising

Vejle Weather History for the Previous 24 Hours

Scroll right to see more
 ConditionsComfort  
Time TempWeatherWind HumidityBarometerVisibility
2:20 am
Sun, Dec 11
46 °FMostly cloudy.8 mph93%29.83 "Hg4 mi
1:50 am46 °FLow clouds.8 mph93%29.86 "Hg5 mi
1:20 am46 °FLow clouds.8 mph93%29.86 "Hg4 mi
12:50 am46 °FLow clouds.7 mph93%29.86 "Hg4 mi
12:20 am46 °FPassing clouds.7 mph93%29.89 "Hg4 mi
11:50 pm
Sat, Dec 10
46 °FPassing clouds.8 mph93%29.89 "Hg4 mi
11:20 pm46 °FMostly cloudy.8 mph93%29.92 "Hg4 mi
10:50 pm45 °FPassing clouds.8 mph100%29.92 "Hg4 mi
10:20 pm46 °FPassing clouds.6 mph93%29.92 "Hg4 mi
9:50 pm46 °FPassing clouds.6 mph93%29.92 "Hg4 mi
9:20 pm46 °FPartly cloudy.8 mph93%29.92 "Hg4 mi
8:50 pm46 °FMostly cloudy.9 mph93%29.95 "Hg4 mi
8:20 pm46 °FMostly cloudy.8 mph100%29.95 "Hg4 mi
7:50 pm46 °FLow clouds.9 mph100%29.95 "Hg4 mi
7:20 pm46 °FLow clouds.9 mph100%29.95 "Hg5 mi
6:50 pm46 °FLow clouds.12 mph100%29.95 "Hg5 mi
6:20 pm46 °FLow clouds.13 mph100%29.95 "Hg5 mi
5:50 pm46 °FLow clouds.13 mph100%29.98 "Hg5 mi
5:20 pm48 °FLow clouds.12 mph94%29.95 "HgN/A
4:50 pm48 °FPassing clouds.13 mph94%29.98 "HgN/A
4:20 pm48 °FPassing clouds.13 mph94%29.95 "HgN/A
3:50 pm48 °FLow clouds.15 mph94%29.95 "HgN/A
3:20 pm48 °FPartly sunny.15 mph94%29.95 "HgN/A
2:50 pm48 °FPartly sunny.15 mph94%29.95 "HgN/A
2:20 pm48 °FLow clouds.15 mph94%29.95 "HgN/A
1:50 pm48 °FPartly sunny.15 mph94%29.95 "HgN/A
1:20 pm50 °FLow clouds.15 mph94%29.95 "HgN/A
12:50 pm50 °FLow clouds.16 mph94%29.95 "HgN/A
12:20 pm50 °FPartly sunny.14 mph94%29.95 "HgN/A
11:50 am50 °FLow clouds.15 mph94%29.95 "HgN/A
11:20 am50 °FLow clouds.15 mph94%29.95 "HgN/A
10:50 am50 °FPartly sunny.14 mph94%29.95 "HgN/A
10:20 am50 °FLow clouds.14 mph94%29.95 "HgN/A
9:50 am50 °FLow clouds.14 mph94%29.95 "HgN/A
9:20 am50 °FLow clouds.14 mph94%29.95 "Hg6 mi
8:50 am50 °FSprinkles. Fog.14 mph94%29.95 "Hg3 mi
8:20 am50 °FMostly cloudy.13 mph94%29.92 "Hg4 mi
7:50 am50 °FLow clouds.13 mph94%29.92 "Hg5 mi
7:20 am50 °FLow clouds.14 mph94%29.92 "Hg4 mi
6:50 am48 °FPassing clouds.10 mph100%29.92 "Hg6 mi
6:20 am50 °FDrizzle. Mostly cloudy.9 mph94%29.92 "HgN/A
5:50 am50 °FDrizzle. Mostly cloudy.13 mph94%29.92 "Hg5 mi
5:20 am50 °FDrizzle. Mostly cloudy.10 mph94%29.92 "Hg6 mi
4:50 am50 °FDrizzle. Mostly cloudy.14 mph94%29.95 "HgN/A
4:20 am50 °FDrizzle. Low clouds.15 mph100%29.95 "Hg4 mi
3:50 am50 °FDrizzle. Low clouds.13 mph100%29.95 "Hg4 mi
3:20 am50 °FLight rain. Low clouds.15 mph100%29.95 "Hg3 mi
Weather by CustomWeather, © 2016

See weather overviewHow to use our weather pages